BEIDOU-3 M5 (C21)

Last updated on Dec. 12, 2019, 4:25 a.m. UTC

1 43207U 18018A   19345.43084184  .00000075  00000-0  00000+0 0  9999
2 43207  55.1138 142.6953 0005288 351.4928   8.4861  1.86231675 12421
UTC
Height (km)
Latitude
Longitude
Inclination
Orbital Period
UTC large
Height (km)
Speed (km/s)
/
Latitude / Longitude
Inclination (degrees)
Orbital Period (minutes)
Azimuth
Elevation
Range (km)
Doppler Factor
iOS Compass Heading
iOS Angle

Next 30 passes for location: Hong Kong

Rise time Rise Azimuth (degrees) Set time Set Azimuth (degrees) Duration Max altitude (degrees)

No matching passes for this satellites